2018-111R (43891 NORAD) Tracking and Keplerian Element Data

This shows tracking and keplerian element data for the satellite.

Feedback or suggestion? Click here.




ElementValue
Catalog43891
Name2018-111R
Epoch Orbit316
Epoch Day16.84638188
Epoch Year2019
RAAN286.1619
Inclination97.2999
Eccentricity0.0026973
Argument of Perigee170.4932
Mean Anonmoly189.6822
Mean Motion15.22824597
Decay Rate1.07E-06
L11 43891U 18111R 19016.84638188 .00000107 00000-0 75206-5 0 9993
L22 43891 97.2999 286.1619 0026973 170.4932 189.6822 15.22824597 3169

Live tracking and technical data element details for 2018-111R (NORAD 43891). 2018-111R can be tracked NOW for your location showing map with azimuth and elevation plus other details from your city location.

Track the satellite on the map from your city or location and see movement details for azimuth, elevation, latitude, longitude, range, height, and movement on the map or in text.







IsCatalogInMostPopularTable: catalog: 43891, numindb: 15
Update: records affected: 1



GetName: 43891 2018-111R

Hit Count: updated at: Thu, 17 Jan 2019 16:09:24 GMT